Rechercher aéroport 
image banner adimage banner ad
image banner ad

DAAT - Tamenghasset/Aguenar-Hadj Bey Akhamok

Situé à Tamanrasset, Algeria

ICAO - DAAT, IATA - TMR

Données fournies par Airmate  

Information générale

Coordonnées: N22°48'40" E5°27'3"
Élévation : 4517 feet MSL.
 
Voir autres Aéroports à Tamanghasset Province

Données opérationnelles

Accessible au public
Heure actuelle UTC:
Heure actuelle locale:
Météo
METAR: DAAT 291000Z 14009KT 120V180 CAVOK 27/M06 Q1025
TAF: TAF DAAT 290500Z 2906/3006 07008KT CAVOK BECMG 2909/2912 14012KT PROB30 TEMPO 2910/2915 14015G25KT BECMG 2920/2923 06008KT
Voir NOTAMs / SUP AIP / TFR affectant cet aéroport [VIEW]
Fréquences de communication: [VIEW]

Pistes:

Identifiant RWYQFULongueur (ft)Largeur (ft)SurfaceLDA (ft)
0222°11811148ASP
20202°11811148
0881°10335148
26261°10335148

Coordonnées de l'aéroport

Adresse: Tamanrasset Algeria

Vue satellite de DAAT